Lexington Weather

Lexington, Massachusetts, USA

73°F
8/7/2020 11:33am 
  • Lexington Conditions: Clear
  • Temperature: 73.0°F / 22.8°CWarmer 2.5°F than last hour.
  • Dew Point: 63.5°FIncreased 0.9°Fsince last hour.
  • Relative Humidity: 72%Decreased 4.0% since last hour.
  • Wind: Wind from ESE ESE 1 mph, 10-min avg: Calm, gust: 2 mph
  • Barometer: 30.14 in Steady
  • Visibility: 10 miles
  • Rain Today: 0.00 in
  •   

Regional Weather Roundup
for Boston / Norton, MA

        
000
ASUS41 KBOX 042105
RWRBOX

REGIONAL WEATHER ROUNDUP
NATIONAL WEATHER SERVICE BOSTON/NORTON MA
500 PM EDT TUE AUG 04 2020

NOTE:  "FAIR" INDICATES FEW OR NO CLOUDS BELOW 12,000 FEET WITH NO 
SIGNIFICANT WEATHER AND/OR OBSTRUCTIONS TO VISIBILITY.

MAZALL-042200-
EASTERN MASSACHUSETTS
  
CITY           SKY/WX    TMP DP  RH WIND       PRES   REMARKS
BOSTON         LGT RAIN  78  71  79 SE29G46   29.77F                  
BEVERLY        CLOUDY    76  71  85 SE23G38   29.80F                  
LAWRENCE       CLOUDY    79  72  79 SE15G38   29.79F                  
BEDFORD        RAIN      79  74  84 SE18G35   29.73F                  
BLUE HILL        N/A     78  71  79 SE32G51   29.75F                  
NORWOOD        LGT RAIN  81  72  74 SE30G44   29.73F                  
MARSHFIELD     CLOUDY    77  73  88 SE17G31   29.82F                  
PLYMOUTH       CLOUDY    82  74  76 SE21G40   29.83F                  
TAUNTON        CLOUDY    83  73  72 SE22G43   29.78F                  
NEW BEDFORD    CLOUDY    81  75  82 SE28G46   29.79F                  
$$

MAZALL-042200-
CAPE COD AND THE ISLANDS
  
CITY           SKY/WX    TMP DP  RH WIND       PRES   REMARKS
FALMOUTH       CLOUDY    81  73  78 SE17G33   29.88F                  
HYANNIS        CLOUDY    79  74  84 SE14G29   29.87F                  
CHATHAM        CLOUDY    73  69  87 SE15G30   29.94F                  
PROVINCETOWN   CLOUDY    81  75  82 S21G30    29.88F                  
NANTUCKET      LGT RAIN  75  72  90 SE28G38   29.90F                  
MARTHAS VNYRD  HVY RAIN  76  74  93 S29G40    29.86F FOG              
$$
 
MAZALL-042200-
CENTRAL AND WESTERN MASSACHUSETTS
  
CITY           SKY/WX    TMP DP  RH WIND       PRES   REMARKS
WORCESTER      CLOUDY    76  71  85 S25G39    29.71F                  
FITCHBURG      RAIN      77  71  82 SE23G37   29.69F                  
ORANGE         LGT RAIN  77  73  87 SE20G33   29.64F                  
SPRINGFIELD    CLOUDY    78  68  72 S29G47    29.55F                  
WESTFIELD      NOT AVBL                                               
NORTH ADAMS    NOT AVBL                                               
PITTSFIELD     CLOUDY    72  67  84 SE20G40   29.51F                  
$$
 
RIZALL-042200-
RHODE ISLAND
  
CITY           SKY/WX    TMP DP  RH WIND       PRES   REMARKS
PROVIDENCE     LGT RAIN  76  74  93 S26G39    29.77R FOG              
NEWPORT        CLOUDY    76  72  87 S26G45    29.80F FOG              
BLOCK ISLAND   MOSUNNY   77  70  79 S29G39    29.81R                  
SMITHFIELD     PTSUNNY   74  72  93 S13G25    29.75R                  
WESTERLY       CLOUDY    77  67  71 S28G38    29.77S                  
$$
 
CTZALL-042200-
CONNECTICUT
  
CITY           SKY/WX    TMP DP  RH WIND       PRES   REMARKS
BRADLEY INTL   LGT RAIN  73  66  78 S36G51    29.55F                  
HARTFORD       NOT AVBL                                               
BRIDGEPORT     LGT RAIN  78  68  71 SW37G51   29.57R                  
DANBURY        LGT RAIN  72  69  90 SW18G29   29.55R FOG              
GROTON         MOSUNNY   77  68  73 S45G53    29.70F                  
NEW HAVEN      CLOUDY   N/A N/A N/A SW33G53   29.60S FOG              
CHESTER        CLOUDY    75  66  73 S28G45    29.66S HAZE             
MERIDEN        LGT RAIN  74  66  76 S23G46    29.56F                  
WILLIMANTIC    CLOUDY    76  67  73 S29G52    29.66F                  
OXFORD         CLOUDY    70  70 100 S18G25    29.57R FOG              
$$

MEZ002-015-021-024-NHZ003-005-008-011-012-014-VTZ005-008-042200-
NORTHERN NEW ENGLAND
  
CITY           SKY/WX    TMP DP  RH WIND       PRES   REMARKS
PORTLAND ME    CLOUDY    71  67  87 E13       29.95F FOG              
BANGOR ME      CLOUDY    75  65  70 SE7       30.07S                  
CONCORD NH     CLOUDY    78  71  79 E18G30    29.75F                  
MANCHESTER NH  CLOUDY    81  73  76 SE22G40   29.72F                  
NASHUA NH      RAIN      79  76  90 SE22G33   29.70F                  
PORTSMOUTH NH  CLOUDY    76  71  85 E22G31    29.82F                  
JAFFREY NH     RAIN      73  70  90 VRB7G17   29.68F FOG              
KEENE NH       RAIN      75  71  87 SE12G29   29.62F                  
BURLINGTON VT  LGT RAIN  70  66  87 N7        29.79F                  
MT. WASHINGTON LGT RAIN  54  54 100 SE58G67     N/A  VSB 0            
$$

NYZ052-076-042200-
EASTERN NEW YORK
  
CITY           SKY/WX    TMP DP  RH WIND       PRES   REMARKS
ALBANY         HVY RAIN  67  67 100 N16G25    29.48F VSB 3/4          
NEW YORK CITY  MOSUNNY   81  63  54 SW33G52   29.69R                  
$$
 
ANZALL-042200-
MARINE OBSERVATIONS
  
STATION/POSITION TIME  TEMP    WIND        PRES    VSBY  WAVE
                       AIR SEA DIR/SP/G                  HT/PER
                 (UTC) (F)     (DEG/KT/KT) (MB)    (MI)  (FT/S)
BOSTON BUOY      2050   74 71  120/ 23/ 27 1008.6F         3/ 4
BUZZARDS BAY     2000          140/ 33/ 36 1010.1F
NANTUCKET SOUND  2040      76  150/ 27/ 33 1010.9
MASS BAY-STELLWA 2004   73     150/ 21/ 25 1009.6F  1 7/8  3/ 4
ISLE OF SHOALS   2000   72     110/ 26/ 28 1011.1F
S OF BLOCK IS    2026      71                N/A           8/ 6
$$

......................KEY.........................
  SKY/WX - SKY CONDITION/PRESENT WEATHER
  TMP    - TEMPERATURE IN FAHRENHEIT
  DWPT   - DEWPOINT IN FAHRENHEIT
  RH     - RELATIVE HUMIDITY IN PERCENT
  WIND   - DIRECTION AND SPEED IN MPH
  PRES   - MEAN SEA LEVEL PRESSURE IN INCHES OF HG
  WCI    - WIND CHILL INDEX
  VSB    - VISIBILITY IN MILES
  HX     - HEAT INDEX
  TC     - TEMPERATURE IN CELSIUS
  VRB    - VARIABLE WIND DIRECTION
  N/A    - NOT AVAILABLE
  
      

Other recent Regional Weather Roundups

Fri Aug 7, 11:04am

Fri Aug 7, 10:04am

Fri Aug 7, 9:04am

Fri Aug 7, 8:04am

Fri Aug 7, 7:04am

Fri Aug 7, 6:04am

Fri Aug 7, 5:04am

Fri Aug 7, 4:04am

Fri Aug 7, 3:04am

Fri Aug 7, 2:04am

Fri Aug 7, 1:05am

Fri Aug 7, 12:04am

Thu Aug 6, 11:04pm

Thu Aug 6, 10:04pm

Thu Aug 6, 9:04pm

Thu Aug 6, 8:04pm

Thu Aug 6, 7:04pm

Thu Aug 6, 6:04pm

Thu Aug 6, 5:04pm

Thu Aug 6, 4:05pm

Thu Aug 6, 3:04pm

Thu Aug 6, 2:05pm

Thu Aug 6, 1:04pm

Thu Aug 6, 12:04pm

Thu Aug 6, 11:04am

Thu Aug 6, 10:04am

Thu Aug 6, 9:04am

Thu Aug 6, 8:04am

Thu Aug 6, 7:04am

Thu Aug 6, 6:04am

Thu Aug 6, 5:04am

Thu Aug 6, 4:04am

Thu Aug 6, 3:04am

Thu Aug 6, 2:05am

Thu Aug 6, 1:04am

Thu Aug 6, 12:04am

Wed Aug 5, 11:04pm

Wed Aug 5, 10:04pm

Wed Aug 5, 9:04pm

Wed Aug 5, 8:05pm

Wed Aug 5, 7:04pm

Wed Aug 5, 6:04pm

Wed Aug 5, 5:04pm

Wed Aug 5, 4:05pm

Wed Aug 5, 3:04pm

Wed Aug 5, 2:04pm

Wed Aug 5, 1:04pm

Wed Aug 5, 12:04pm

Wed Aug 5, 11:04am

Wed Aug 5, 10:04am

Wed Aug 5, 9:04am

Wed Aug 5, 8:04am

Wed Aug 5, 7:04am

Wed Aug 5, 6:04am

Wed Aug 5, 5:04am

Wed Aug 5, 4:04am

Wed Aug 5, 3:04am

Wed Aug 5, 2:05am

Wed Aug 5, 1:04am

Wed Aug 5, 12:05am

Tue Aug 4, 11:05pm

Tue Aug 4, 10:05pm

Tue Aug 4, 9:04pm

Tue Aug 4, 8:04pm

Tue Aug 4, 7:05pm

Tue Aug 4, 6:05pm

Tue Aug 4, 4:05pm

Tue Aug 4, 3:04pm

Tue Aug 4, 2:05pm

Tue Aug 4, 1:04pm

Tue Aug 4, 12:05pm

Tue Aug 4, 11:04am

Tue Aug 4, 10:04am

Tue Aug 4, 9:04am

Tue Aug 4, 8:04am

Tue Aug 4, 7:04am

Tue Aug 4, 6:04am

Tue Aug 4, 5:04am

Tue Aug 4, 4:04am

Tue Aug 4, 3:04am

Tue Aug 4, 2:04am

Tue Aug 4, 1:04am

Tue Aug 4, 12:04am

Mon Aug 3, 11:04pm

Mon Aug 3, 10:04pm

Mon Aug 3, 9:04pm

Mon Aug 3, 8:05pm

Mon Aug 3, 7:04pm

Mon Aug 3, 6:04pm

Mon Aug 3, 5:04pm

Mon Aug 3, 4:05pm

Mon Aug 3, 3:04pm

Mon Aug 3, 2:04pm

Mon Aug 3, 1:04pm

Mon Aug 3, 12:05pm

Mon Aug 3, 11:04am

Mon Aug 3, 10:04am

Mon Aug 3, 9:05am

Mon Aug 3, 8:04am

Mon Aug 3, 7:04am

Mon Aug 3, 6:04am

Mon Aug 3, 5:04am

Mon Aug 3, 4:04am

Mon Aug 3, 3:04am

Mon Aug 3, 2:04am

Mon Aug 3, 1:04am

Mon Aug 3, 12:05am

Sun Aug 2, 11:04pm

Sun Aug 2, 10:04pm

Sun Aug 2, 9:04pm

Sun Aug 2, 8:04pm

Sun Aug 2, 7:04pm

Sun Aug 2, 6:04pm

Sun Aug 2, 5:04pm

Sun Aug 2, 4:05pm

Sun Aug 2, 3:04pm

Sun Aug 2, 2:05pm

Sun Aug 2, 1:04pm

Sun Aug 2, 12:04pm

Sun Aug 2, 11:04am

Sun Aug 2, 10:04am

Sun Aug 2, 9:05am

Sun Aug 2, 8:05am

Sun Aug 2, 7:04am

Sun Aug 2, 6:04am

Sun Aug 2, 5:04am

Sun Aug 2, 4:05am

Sun Aug 2, 3:04am

Sun Aug 2, 2:04am

Sun Aug 2, 1:04am

Sun Aug 2, 12:05am

Sat Aug 1, 11:04pm

Sat Aug 1, 10:04pm

Sat Aug 1, 9:04pm

Sat Aug 1, 8:05pm

Sat Aug 1, 7:04pm

Sat Aug 1, 6:04pm

Sat Aug 1, 5:05pm

Sat Aug 1, 4:05pm

Sat Aug 1, 3:04pm

Sat Aug 1, 2:04pm

Sat Aug 1, 1:04pm

Sat Aug 1, 12:04pm

Sat Aug 1, 11:05am

Sat Aug 1, 10:05am

Sat Aug 1, 9:04am

Sat Aug 1, 8:04am

Sat Aug 1, 7:04am

Sat Aug 1, 6:04am

Sat Aug 1, 5:04am

Sat Aug 1, 4:05am

Sat Aug 1, 3:04am

Sat Aug 1, 2:04am

Sat Aug 1, 1:04am

Sat Aug 1, 12:05am

Fri Jul 31, 11:05pm

Fri Jul 31, 10:04pm

Fri Jul 31, 9:04pm

Fri Jul 31, 8:05pm

Fri Jul 31, 7:05pm

Fri Jul 31, 6:04pm

Fri Jul 31, 5:04pm

Fri Jul 31, 4:05pm

Fri Jul 31, 3:04pm

Fri Jul 31, 2:05pm

Fri Jul 31, 1:04pm

Fri Jul 31, 12:04pm

Meta data:

ID: 7480ceb0-aae6-4572-975e-5f43867340c8
Link: https://api.weather.gov/products/7480ceb0-aae6-4572-975e-5f43867340c8